GSAT-14

Last updated on Mon Oct 14 2024 00:02:39 GMT+0000 (Coordinated Universal Time)

1 39498U 14001A 24286.56318177 -.00000078 00000+0 00000+0 0 9993 2 39498 0.0462 102.9182 0005688 133.3227 62.1572 1.00271979 39245
UTC large
Height (km)
Speed (km/s)
/
Latitude / Longitude
Inclination (degrees)
Orbital Period (minutes)
Azimuth
Elevation
Range (km)
Doppler Factor

Next 0 passes for location: London (51.5072 / 0.1276)

Sorry there are no passes over London.